sat.trackr.live / text

‹ back to catalog

DRESDEN

NORAD 65297 · 2025-185A

PAYLOAD ACTIVE UNKNOWN

§ Identity

Operator
Country
RWA
Launch date
2025-08-23
Launch site
RLLB
Launch vehicle
Mass (kg)
RCS (m²)

External: N2YO · Heavens-Above · Gunter

§ Orbital elements

Epoch: 2026-09-20T11:04:43.496256Z

Period
97.24 min
Inclination
97.9611°
Eccentricity
0.0015188
Mean motion
14.80879705 rev/d
Perigee alt
615.9 km
Apogee alt
637.2 km
Semi-major
7,004.7 km
B*
6.8820e-4
RAAN
346.0005°
Arg perigee
137.4247°
Mean anomaly
222.8146°
Rev number
5,792

§ Raw data

DRESDEN1 65297U 25185A   26263.46161454  .00005275  00000+0  68820-3 0  99952 65297  97.9611 346.0005 0015188 137.4247 222.8146 14.80879705 57920

JSON: /api/v1/satellites/65297 · /tle

For live sub-satellite position, see the globe view (requires WebGL).

§ Visibility from observer

Set your observer location to see the next 7 days of passes ≥ 10°. The values pass through the URL so the page stays shareable.

No JS? Fill the form by hand. The geolocation button needs JavaScript.